Location: Unspecified
(0.0000°N, 0.0000°E)
Time: 23:24:03
(UTC+02:00)

Cosmos 1908 Rocket - Visible Passes

Search period start: 22 May 2017 00:00
Search period end: 01 June 2017 00:00
Orbit: 605 x 633 km, 82.5° (Epoch: 21 May)

Date Brightness Start Highest point End Pass type
(mag) Time Alt. Az. Time Alt. Az. Time Alt. Az.
22 May 6.2 20:28:46 10° NW 20:32:20 24° W 20:35:56 10° SSW visible
23 May 6.4 07:00:29 10° SE 07:03:35 19° E 07:06:39 10° NE visible
23 May 7.0 20:48:55 10° W 20:49:46 10° W 20:50:36 10° WSW visible
24 May 4.9 07:16:52 10° SSE 07:21:00 43° E 07:25:06 10° NNE visible
27 May 6.1 06:32:23 10° SE 06:35:38 21° E 06:38:52 10° NE visible
28 May 4.5 06:48:52 10° SSE 06:53:02 47° E 06:57:11 10° NNE visible
29 May 3.4 07:06:08 10° S 07:10:27 70° W 07:14:44 10° N visible
30 May 4.4 07:24:06 10° SSW 07:27:51 29° W 07:31:35 10° NNW visible
31 May 5.8 06:04:17 10° SE 06:07:40 22° E 06:11:03 10° NE visible
